This demonstration page uses our WeatherBlox Daily Observations layout. Learn more.

Left ArrowRight Arrow

39.08367, -84.50855

Hourly Observations for May 16, 2021

Temp ( °F °C ) Dew Point ( °F °C ) Humidity (%) Winds ( mph kmh ) Pressure ( in mb ) Visibility ( mi km ) Precip ( " mm )
12:53 am 00:53 Cloudy 59 15 47 8.3 64 64 S 3 6 30.18 1022 10 16.0934 N/A
1:53 am 01:53 Cloudy 56 13.3 49 9.4 77 77 N N/A 30.19 1022 10 16.0934 N/A
2:53 am 02:53 Cloudy 57 13.9 49 9.4 74 74 N N/A 30.18 1022 10 16.0934 N/A
3:53 am 03:53 Cloudy 54 12.2 50 10 87 87 N N/A 30.18 1022 10 16.0934 0.001 0.001
4:53 am 04:53 Cloudy 56 13.3 50 10 81 81 N N/A 30.19 1022 10 16.0934 0.001 0.001
5:53 am 05:53 Cloudy 55 12.8 50 10 83 83 N N/A 30.2 1023 10 16.0934 N/A
6:53 am 06:53 Cloudy 55 12.8 51 10.6 87 87 N N/A 30.22 1023 10 16.0934 0.001 0.001
7:53 am 07:53 Cloudy 56 13.3 51 10.6 84 84 N N/A 30.24 1024 10 16.0934 0.001 0.001
8:53 am 08:53 Cloudy 58 14.4 52 11.1 81 81 N N/A 30.25 1024 10 16.0934 N/A
9:53 am 09:53 Cloudy 62 16.7 50 10 65 65 SW 8 13 30.26 1025 10 16.0934 N/A
10:53 am 10:53 Cloudy 65 18.3 46 7.8 51 51 SSW 7 11 30.25 1024 10 16.0934 N/A
11:53 am 11:53 Mostly Cloudy 67 19.4 46 7.8 47 47 N N/A 30.25 1024 10 16.0934 N/A
12:53 pm 12:53 Partly Cloudy 69 20.6 46 7.8 44 44 SSE 6 9 30.23 1024 10 16.0934 N/A
1:53 pm 13:53 Cloudy 69 20.6 50 10 51 51 SSW 7 11 30.21 1023 10 16.0934 N/A
2:53 pm 14:53 Mostly Cloudy 69 20.6 49 9.4 49 49 SW 7 11 30.2 1023 10 16.0934 N/A
3:53 pm 15:53 Cloudy 69 20.6 51 10.6 53 53 S 8 13 30.19 1022 10 16.0934 N/A
4:53 pm 16:53 Partly Cloudy 70 21.1 51 10.6 51 51 SSW 6 9 30.17 1022 10 16.0934 N/A
5:53 pm 17:53 Cloudy 68 20 52 11.1 57 57 SSW 3 6 30.18 1022 10 16.0934 N/A
6:53 pm 18:53 Cloudy 68 20 51 10.6 55 55 S 7 11 30.18 1022 10 16.0934 N/A
7:53 pm 19:53 Cloudy 67 19.4 51 10.6 57 57 SSE 6 9 30.17 1022 10 16.0934 N/A
8:53 pm 20:53 Clear 63 17.2 51 10.6 65 65 SSE 6 9 30.18 1022 10 16.0934 N/A
9:53 pm 21:53 Clear 59 15 52 11.1 78 78 N N/A 30.19 1022 10 16.0934 N/A
10:53 pm 22:53 Clear 56 13.3 52 11.1 87 87 N N/A 30.19 1023 10 16.0934 N/A
11:53 pm 23:53 Clear 53 11.7 51 10.6 93 93 N N/A 30.2 1023 10 16.0934 N/A

Powered by AerisWeather